VIA003 SVMG-SVMI

Flight info

Callsign VIA003
Flight time 0h 41m
Altitude 24000
Route ESPEP SARNI A561 CBC DCT NETSI NETSI1
Aircraft MD11/H-SDE1E2E3FGHIJ2J3J4J5M1RWXYZ/LB1D1

Departure

Time 2026-05-03 20:56
Airport Del Caribe Santiago Mariño International Airport (SVMG)

Arrival

Time 2026-05-03 21:38
Airport Maiquetía Simón Bolívar International Airport (SVMI)
Time Latitude Longitude Altitude Speed Heading
2026-05-03 20:53 10.91348 -63.97079 92 ft 13 kts 255°
2026-05-03 20:53 10.91330 -63.97178 92 ft 15 kts 258°
2026-05-03 20:53 10.91305 -63.97292 92 ft 17 kts 257°
2026-05-03 20:54 10.91276 -63.97421 92 ft 19 kts 259°
2026-05-03 20:54 10.91221 -63.97701 92 ft 23 kts 259°
2026-05-03 20:54 10.91187 -63.97873 92 ft 26 kts 258°
2026-05-03 20:55 10.91158 -63.98015 92 ft 20 kts 258°
2026-05-03 20:55 10.91120 -63.98133 92 ft 13 kts 219°
2026-05-03 20:55 10.91036 -63.98116 92 ft 13 kts 132°
2026-05-03 20:55 10.90986 -63.98038 92 ft 11 kts 98°
2026-05-03 20:56 10.90992 -63.97969 92 ft 16 kts 79°
2026-05-03 20:56 10.91076 -63.97564 92 ft 101 kts 78°
2026-05-03 20:56 10.91267 -63.96628 126 ft 164 kts 78°
2026-05-03 20:56 10.91458 -63.95452 784 ft 170 kts 82°
2026-05-03 20:57 10.91662 -63.94307 1629 ft 173 kts 77°
2026-05-03 20:57 10.91958 -63.93048 2181 ft 197 kts 77°
2026-05-03 20:57 10.92278 -63.91607 2626 ft 225 kts 83°
2026-05-03 20:57 10.91968 -63.90005 3265 ft 240 kts 116°
2026-05-03 20:58 10.90829 -63.88735 3825 ft 256 kts 144°
2026-05-03 20:58 10.89108 -63.88166 4590 ft 271 kts 176°
2026-05-03 20:58 10.87282 -63.88519 5662 ft 275 kts 203°
2026-05-03 20:58 10.85770 -63.89680 6604 ft 281 kts 230°
2026-05-03 20:59 10.84825 -63.91432 7474 ft 289 kts 250°
2026-05-03 20:59 10.84272 -63.93438 8042 ft 298 kts 257°
2026-05-03 20:59 10.83873 -63.95503 8521 ft 300 kts 258°
2026-05-03 20:59 10.83344 -63.97556 8988 ft 303 kts 249°
2026-05-03 21:00 10.82467 -63.99527 9481 ft 305 kts 240°
2026-05-03 21:00 10.81730 -64.00768 9760 ft 307 kts 235°
2026-05-03 21:00 10.80038 -64.03129 10355 ft 319 kts 231°
2026-05-03 21:00 10.78653 -64.04956 10793 ft 335 kts 233°
2026-05-03 21:01 10.77468 -64.07039 11258 ft 354 kts 247°
2026-05-03 21:01 10.76714 -64.09537 11649 ft 381 kts 259°
2026-05-03 21:01 10.76353 -64.12273 11993 ft 408 kts 266°
2026-05-03 21:01 10.76190 -64.15215 12255 ft 425 kts 268°
2026-05-03 21:02 10.76084 -64.18256 12498 ft 434 kts 268°
2026-05-03 21:02 10.75953 -64.21345 12721 ft 438 kts 267°
2026-05-03 21:02 10.75788 -64.24430 12961 ft 439 kts 267°
2026-05-03 21:02 10.75605 -64.27547 13233 ft 440 kts 266°
2026-05-03 21:03 10.75415 -64.30637 13473 ft 441 kts 266°
2026-05-03 21:03 10.75222 -64.33774 13715 ft 443 kts 266°
2026-05-03 21:03 10.75032 -64.36916 13950 ft 445 kts 266°
2026-05-03 21:03 10.74850 -64.40042 14216 ft 447 kts 266°
2026-05-03 21:04 10.74670 -64.43198 14460 ft 448 kts 266°
2026-05-03 21:04 10.74493 -64.46346 14705 ft 450 kts 266°
2026-05-03 21:04 10.74310 -64.49531 14958 ft 451 kts 266°
2026-05-03 21:04 10.74129 -64.52715 15195 ft 452 kts 266°
2026-05-03 21:05 10.73949 -64.55940 15445 ft 454 kts 266°
2026-05-03 21:05 10.73769 -64.59139 15692 ft 456 kts 266°
2026-05-03 21:05 10.73659 -64.62356 15927 ft 457 kts 270°
2026-05-03 21:05 10.73766 -64.65570 16198 ft 459 kts 273°
2026-05-03 21:06 10.73939 -64.68373 16408 ft 461 kts 274°
2026-05-03 21:06 10.74130 -64.71639 17177 ft 465 kts 272°
2026-05-03 21:06 10.74284 -64.74926 18065 ft 470 kts 272°
2026-05-03 21:06 10.74423 -64.78238 19130 ft 471 kts 272°
2026-05-03 21:07 10.74556 -64.81511 20323 ft 466 kts 273°
2026-05-03 21:07 10.74694 -64.84763 21606 ft 459 kts 273°
2026-05-03 21:07 10.74843 -64.87982 22741 ft 452 kts 274°
2026-05-03 21:07 10.74996 -64.91164 23449 ft 447 kts 274°
2026-05-03 21:08 10.75137 -64.94305 23607 ft 440 kts 274°
2026-05-03 21:08 10.75272 -64.97391 23806 ft 435 kts 274°
2026-05-03 21:08 10.75410 -65.00464 23808 ft 433 kts 274°
2026-05-03 21:08 10.75557 -65.03516 23853 ft 432 kts 274°
2026-05-03 21:09 10.75698 -65.06590 23861 ft 432 kts 274°
2026-05-03 21:09 10.75836 -65.09624 23867 ft 434 kts 274°
2026-05-03 21:09 10.75976 -65.12679 23873 ft 435 kts 274°
2026-05-03 21:09 10.76118 -65.15746 23876 ft 435 kts 274°
2026-05-03 21:10 10.76263 -65.18836 23882 ft 435 kts 274°
2026-05-03 21:10 10.76406 -65.21893 23880 ft 434 kts 274°
2026-05-03 21:10 10.76549 -65.24995 23883 ft 434 kts 274°
2026-05-03 21:10 10.76691 -65.28067 23885 ft 434 kts 274°
2026-05-03 21:11 10.76834 -65.31132 23888 ft 435 kts 274°
2026-05-03 21:11 10.76981 -65.34187 23881 ft 435 kts 274°
2026-05-03 21:11 10.77126 -65.37241 23884 ft 435 kts 274°
2026-05-03 21:11 10.77265 -65.40316 23888 ft 436 kts 274°
2026-05-03 21:12 10.77410 -65.43401 23885 ft 436 kts 274°
2026-05-03 21:12 10.77558 -65.46474 23886 ft 435 kts 274°
2026-05-03 21:12 10.77705 -65.49567 23883 ft 434 kts 274°
2026-05-03 21:12 10.77830 -65.52630 23882 ft 434 kts 274°
2026-05-03 21:13 10.77950 -65.55696 23889 ft 435 kts 273°
2026-05-03 21:13 10.78077 -65.58757 23888 ft 435 kts 274°
2026-05-03 21:13 10.78211 -65.61855 23889 ft 436 kts 274°
2026-05-03 21:13 10.78345 -65.64925 23888 ft 436 kts 274°
2026-05-03 21:14 10.78474 -65.67993 23891 ft 436 kts 273°
2026-05-03 21:14 10.78604 -65.71091 23893 ft 436 kts 273°
2026-05-03 21:14 10.78729 -65.74159 23893 ft 436 kts 273°
2026-05-03 21:14 10.78865 -65.77232 23891 ft 436 kts 274°
2026-05-03 21:15 10.79004 -65.80326 23893 ft 436 kts 274°
2026-05-03 21:15 10.79135 -65.83423 23891 ft 437 kts 273°
2026-05-03 21:15 10.79261 -65.86504 23892 ft 437 kts 273°
2026-05-03 21:15 10.79397 -65.89607 23889 ft 437 kts 274°
2026-05-03 21:16 10.79538 -65.92685 23886 ft 437 kts 274°
2026-05-03 21:16 10.79670 -65.95783 23884 ft 437 kts 273°
2026-05-03 21:16 10.79797 -65.98844 23889 ft 437 kts 274°
2026-05-03 21:16 10.79933 -66.01947 23882 ft 437 kts 274°
2026-05-03 21:17 10.80072 -66.05016 23886 ft 437 kts 273°
2026-05-03 21:17 10.80164 -66.07097 23887 ft 437 kts 273°
2026-05-03 21:17 10.80340 -66.11193 23885 ft 436 kts 273°
2026-05-03 21:17 10.80476 -66.14294 23523 ft 433 kts 273°
2026-05-03 21:18 10.80611 -66.17333 22894 ft 431 kts 274°
2026-05-03 21:18 10.80747 -66.20367 22302 ft 430 kts 274°
2026-05-03 21:18 10.80882 -66.23383 21712 ft 428 kts 274°
2026-05-03 21:18 10.81016 -66.26413 21134 ft 426 kts 273°
2026-05-03 21:19 10.81145 -66.29392 20557 ft 424 kts 273°
2026-05-03 21:19 10.81279 -66.32381 19985 ft 423 kts 273°
2026-05-03 21:19 10.81408 -66.35350 19620 ft 421 kts 272°
2026-05-03 21:19 10.81470 -66.38322 19433 ft 421 kts 269°
2026-05-03 21:20 10.81259 -66.41291 19141 ft 424 kts 262°
2026-05-03 21:20 10.80786 -66.44269 18639 ft 424 kts 259°
2026-05-03 21:20 10.80229 -66.47188 18155 ft 421 kts 258°
2026-05-03 21:20 10.79656 -66.50143 17678 ft 418 kts 258°
2026-05-03 21:21 10.79129 -66.53009 17219 ft 415 kts 259°
2026-05-03 21:21 10.78621 -66.55907 16766 ft 413 kts 259°
2026-05-03 21:21 10.78130 -66.58770 16304 ft 411 kts 259°
2026-05-03 21:21 10.77645 -66.61622 15865 ft 408 kts 259°
2026-05-03 21:22 10.77159 -66.64477 15420 ft 406 kts 259°
2026-05-03 21:22 10.76677 -66.67293 14990 ft 403 kts 259°
2026-05-03 21:22 10.76195 -66.70081 14536 ft 399 kts 259°
2026-05-03 21:22 10.75715 -66.72849 14082 ft 396 kts 259°
2026-05-03 21:23 10.75238 -66.75610 13663 ft 393 kts 259°
2026-05-03 21:23 10.74766 -66.78343 13225 ft 390 kts 259°
2026-05-03 21:23 10.74304 -66.81033 12810 ft 387 kts 259°
2026-05-03 21:23 10.73840 -66.83707 12389 ft 385 kts 259°
2026-05-03 21:24 10.73371 -66.86420 11990 ft 383 kts 259°
2026-05-03 21:24 10.72935 -66.89077 11565 ft 381 kts 262°
2026-05-03 21:24 10.72701 -66.91750 11213 ft 376 kts 267°
2026-05-03 21:24 10.72660 -66.94383 10678 ft 377 kts 270°
2026-05-03 21:25 10.72695 -66.97055 10159 ft 377 kts 271°
2026-05-03 21:25 10.72734 -66.99678 9988 ft 366 kts 270°
2026-05-03 21:25 10.72745 -67.02226 9958 ft 351 kts 270°
2026-05-03 21:25 10.72741 -67.04647 9939 ft 337 kts 269°
2026-05-03 21:26 10.72730 -67.06979 9929 ft 324 kts 269°
2026-05-03 21:26 10.72719 -67.09235 9927 ft 315 kts 269°
2026-05-03 21:26 10.72707 -67.11423 9947 ft 308 kts 269°
2026-05-03 21:26 10.72698 -67.13620 9676 ft 311 kts 269°
2026-05-03 21:27 10.72692 -67.15814 9080 ft 311 kts 269°
2026-05-03 21:27 10.72691 -67.17967 8581 ft 302 kts 269°
2026-05-03 21:27 10.72688 -67.20069 8354 ft 288 kts 269°
2026-05-03 21:27 10.72685 -67.22092 8174 ft 292 kts 269°
2026-05-03 21:28 10.72700 -67.24165 7745 ft 296 kts 270°
2026-05-03 21:28 10.72720 -67.26241 7307 ft 293 kts 270°
2026-05-03 21:28 10.72733 -67.28292 6906 ft 285 kts 269°
2026-05-03 21:28 10.72739 -67.30273 6508 ft 277 kts 269°
2026-05-03 21:29 10.72746 -67.32220 6120 ft 270 kts 269°
2026-05-03 21:29 10.72549 -67.34053 5797 ft 255 kts 245°
2026-05-03 21:29 10.71615 -67.35483 5545 ft 240 kts 216°
2026-05-03 21:29 10.70187 -67.36160 5426 ft 216 kts 181°
2026-05-03 21:30 10.68779 -67.35949 5289 ft 201 kts 149°
2026-05-03 21:30 10.67642 -67.35169 5164 ft 195 kts 138°
2026-05-03 21:30 10.66597 -67.34295 5057 ft 194 kts 140°
2026-05-03 21:30 10.65476 -67.33467 4961 ft 201 kts 144°
2026-05-03 21:31 10.64277 -67.32707 4771 ft 201 kts 142°
2026-05-03 21:31 10.63298 -67.31761 4695 ft 194 kts 127°
2026-05-03 21:31 10.62509 -67.30642 4611 ft 195 kts 121°
2026-05-03 21:31 10.61793 -67.29473 4532 ft 195 kts 120°
2026-05-03 21:32 10.61083 -67.28291 4430 ft 194 kts 120°
2026-05-03 21:32 10.60383 -67.27113 4332 ft 194 kts 115°
2026-05-03 21:32 10.59922 -67.25855 4356 ft 191 kts 102°
2026-05-03 21:32 10.59715 -67.24497 4180 ft 194 kts 94°
2026-05-03 21:33 10.59680 -67.23146 4029 ft 188 kts 89°
2026-05-03 21:33 10.59722 -67.21839 3976 ft 188 kts 87°
2026-05-03 21:33 10.59787 -67.20504 3747 ft 190 kts 87°
2026-05-03 21:33 10.59846 -67.19166 3541 ft 186 kts 87°
2026-05-03 21:34 10.59890 -67.17837 3288 ft 190 kts 88°
2026-05-03 21:34 10.59925 -67.16509 3032 ft 186 kts 88°
2026-05-03 21:34 10.59958 -67.15198 2814 ft 184 kts 88°
2026-05-03 21:34 10.59992 -67.13917 2590 ft 182 kts 88°
2026-05-03 21:35 10.60028 -67.12611 2366 ft 184 kts 88°
2026-05-03 21:35 10.60064 -67.11336 2118 ft 178 kts 88°
2026-05-03 21:35 10.60102 -67.10124 1876 ft 165 kts 87°
2026-05-03 21:35 10.60136 -67.09012 1717 ft 153 kts 87°
2026-05-03 21:36 10.60169 -67.07944 1538 ft 150 kts 87°
2026-05-03 21:36 10.60204 -67.06874 1340 ft 150 kts 87°
2026-05-03 21:36 10.60239 -67.05809 1166 ft 152 kts 88°
2026-05-03 21:36 10.60273 -67.04719 972 ft 158 kts 88°
2026-05-03 21:37 10.60302 -67.03587 774 ft 163 kts 89°
2026-05-03 21:37 10.60345 -67.02408 489 ft 169 kts 88°
2026-05-03 21:37 10.60379 -67.01220 327 ft 165 kts 88°
2026-05-03 21:37 10.60412 -67.00059 311 ft 161 kts 89°
2026-05-03 21:38 10.60445 -66.99072 269 ft 98 kts 88°
2026-05-03 21:38 10.60457 -66.98723 250 ft 21 kts 88°
2026-05-03 21:38 10.60436 -66.98666 248 ft 8 kts 196°
2026-05-03 21:38 10.60397 -66.98700 251 ft 6 kts 234°
2026-05-03 21:39 10.60373 -66.98736 253 ft 5 kts 237°
2026-05-03 21:39 10.60350 -66.98772 255 ft 7 kts 237°
2026-05-03 21:39 10.60314 -66.98830 259 ft 11 kts 238°
2026-05-03 21:39 10.60285 -66.98918 265 ft 15 kts 266°
2026-05-03 21:40 10.60280 -66.99038 272 ft 18 kts 268°
2026-05-03 21:40 10.60276 -66.99184 277 ft 21 kts 268°
2026-05-03 21:40 10.60271 -66.99345 285 ft 24 kts 268°
2026-05-03 21:40 10.60265 -66.99526 294 ft 27 kts 268°
2026-05-03 21:41 10.60258 -66.99728 302 ft 28 kts 269°
2026-05-03 21:41 10.60256 -66.99929 309 ft 28 kts 267°
2026-05-03 21:41 10.60246 -67.00129 313 ft 26 kts 268°
2026-05-03 21:41 10.60240 -67.00268 316 ft 15 kts 256°
2026-05-03 21:42 10.60150 -67.00305 317 ft 15 kts 180°
2026-05-03 21:42 10.60036 -67.00309 319 ft 16 kts 207°
2026-05-03 21:42 10.59999 -67.00419 320 ft 18 kts 267°
2026-05-03 21:42 10.59993 -67.00558 319 ft 21 kts 268°
2026-05-03 21:43 10.59989 -67.00710 316 ft 20 kts 269°
2026-05-03 21:43 10.59985 -67.00840 313 ft 18 kts 268°
2026-05-03 21:43 10.59980 -67.00946 310 ft 13 kts 256°
2026-05-03 21:43 10.59896 -67.00978 309 ft 11 kts 180°
2026-05-03 21:44 10.59839 -67.00977 310 ft 4 kts 178°
2026-05-03 21:44 10.59821 -67.00977 310 ft 0 kts 178°
2026-05-03 21:44 10.59818 -67.00977 310 ft 0 kts 178°